Time,TemperatureF,DewpointF,PressureIn,WindDirection,WindDirectionDegrees,WindSpeedMPH,WindSpeedGustMPH,Humidity,HourlyPrecipIn,Conditions,Clouds,dailyrainin,SoftwareType,DateUTC
2013-01-29 00:00:00,28.4,26.9,30.04,SSE,153,0.0,0.0,94,0.00,,,0.00,WeatherCatV1.11B39,2013-01-29 05:00:00,
2013-01-29 00:05:00,28.2,26.4,30.04,NNW,335,0.0,1.0,93,0.00,,,0.00,WeatherCatV1.11B39,2013-01-29 05:05:00,
2013-01-29 00:10:00,28.0,26.2,30.04,WSW,254,0.0,1.0,93,0.00,,,0.00,WeatherCatV1.11B39,2013-01-29 05:10:00,
2013-01-29 00:15:00,27.9,26.1,30.04,NNE,20,0.0,2.0,93,0.00,,,0.00,WeatherCatV1.11B39,2013-01-29 05:15:00,
2013-01-29 00:20:00,27.7,25.9,30.05,North,9,0.0,1.0,93,0.00,,,0.00,WeatherCatV1.11B39,2013-01-29 05:20:00,
2013-01-29 00:25:00,27.7,25.9,30.05,WSW,248,1.0,1.0,93,0.00,,,0.00,WeatherCatV1.11B39,2013-01-29 05:25:00,
2013-01-29 00:30:00,27.5,25.7,30.05,NNW,342,0.0,1.0,93,0.00,,,0.00,WeatherCatV1.11B39,2013-01-29 05:30:00,
2013-01-29 00:35:00,27.5,25.7,30.05,WSW,248,0.0,0.0,93,0.00,,,0.00,WeatherCatV1.11B39,2013-01-29 05:35:00,
2013-01-29 00:40:00,27.4,25.6,30.04,North,356,0.0,2.0,93,0.00,,,0.00,WeatherCatV1.11B39,2013-01-29 05:40:00,
2013-01-29 00:45:00,27.3,25.5,30.04,NNE,16,0.0,2.0,93,0.00,,,0.00,WeatherCatV1.11B39,2013-01-29 05:45:00,
2013-01-29 00:50:00,27.3,25.5,30.04,NE,51,0.0,2.0,93,0.00,,,0.00,WeatherCatV1.11B39,2013-01-29 05:50:00,
2013-01-29 00:55:00,27.2,25.5,30.05,NW,321,0.0,0.0,93,0.00,,,0.00,WeatherCatV1.11B39,2013-01-29 05:55:00,
2013-01-29 01:00:00,27.3,25.5,30.05,North,352,0.0,2.0,93,0.00,,,0.00,WeatherCatV1.11B39,2013-01-29 06:00:00,
2013-01-29 01:05:00,27.2,25.5,30.05,NW,314,0.0,1.0,93,0.00,,,0.00,WeatherCatV1.11B39,2013-01-29 06:05:00,
2013-01-29 01:10:00,27.2,25.5,30.05,NNW,335,0.0,2.0,93,0.00,,,0.00,WeatherCatV1.11B39,2013-01-29 06:10:00,
2013-01-29 01:15:00,27.2,25.5,30.06,NNW,347,1.0,1.0,93,0.00,,,0.00,WeatherCatV1.11B39,2013-01-29 06:15:00,
2013-01-29 01:20:00,27.2,25.5,30.05,South,184,0.0,1.0,93,0.00,,,0.00,WeatherCatV1.11B39,2013-01-29 06:20:00,
2013-01-29 01:25:00,27.2,25.5,30.06,North,1,1.0,3.0,93,0.00,,,0.00,WeatherCatV1.11B39,2013-01-29 06:25:00,
2013-01-29 01:30:00,27.1,25.6,30.06,NNE,25,0.0,2.0,94,0.00,,,0.00,WeatherCatV1.11B39,2013-01-29 06:30:00,
2013-01-29 01:35:00,27.2,25.7,30.06,NW,307,0.0,2.0,94,0.00,,,0.00,WeatherCatV1.11B39,2013-01-29 06:35:00,
2013-01-29 01:40:00,27.2,25.7,30.06,NNW,347,0.0,1.0,94,0.00,,,0.00,WeatherCatV1.11B39,2013-01-29 06:40:00,
2013-01-29 01:45:00,27.2,25.7,30.06,WSW,255,1.0,1.0,94,0.00,,,0.00,WeatherCatV1.11B39,2013-01-29 06:45:00,
2013-01-29 01:50:00,27.3,25.8,30.06,NNW,329,0.0,1.0,94,0.00,,,0.00,WeatherCatV1.11B39,2013-01-29 06:50:00,
2013-01-29 01:55:00,27.2,25.7,30.07,NNE,19,1.0,1.0,94,0.00,,,0.00,WeatherCatV1.11B39,2013-01-29 06:55:00,
2013-01-29 02:00:00,27.2,25.7,30.07,North,9,1.0,1.0,94,0.00,,,0.00,WeatherCatV1.11B39,2013-01-29 07:00:00,
2013-01-29 02:05:00,27.1,25.6,30.07,NNE,16,0.0,1.0,94,0.00,,,0.00,WeatherCatV1.11B39,2013-01-29 07:05:00,
2013-01-29 02:10:00,27.1,25.6,30.07,NNE,26,1.0,1.0,94,0.00,,,0.00,WeatherCatV1.11B39,2013-01-29 07:10:00,
2013-01-29 02:15:00,27.0,25.5,30.07,North,8,1.0,2.0,94,0.00,,,0.00,WeatherCatV1.11B39,2013-01-29 07:15:00,
2013-01-29 02:20:00,27.0,25.3,30.07,North,358,0.0,2.0,93,0.00,,,0.00,WeatherCatV1.11B39,2013-01-29 07:20:00,
2013-01-29 02:25:00,26.8,25.1,30.07,WSW,246,0.0,1.0,93,0.00,,,0.00,WeatherCatV1.11B39,2013-01-29 07:25:00,
2013-01-29 02:30:00,26.7,25.0,30.07,SE,142,0.0,4.0,93,0.00,,,0.00,WeatherCatV1.11B39,2013-01-29 07:30:00,
2013-01-29 02:35:00,26.7,25.0,30.07,NNE,19,1.0,3.0,93,0.00,,,0.00,WeatherCatV1.11B39,2013-01-29 07:35:00,
2013-01-29 02:40:00,26.7,25.0,30.07,SSE,157,0.0,1.0,93,0.00,,,0.00,WeatherCatV1.11B39,2013-01-29 07:40:00,
2013-01-29 02:45:00,26.6,24.9,30.07,North,354,0.0,1.0,93,0.00,,,0.00,WeatherCatV1.11B39,2013-01-29 07:45:00,
2013-01-29 02:50:00,26.6,24.9,30.07,NNE,23,1.0,1.0,93,0.00,,,0.00,WeatherCatV1.11B39,2013-01-29 07:50:00,
2013-01-29 02:55:00,26.5,24.8,30.07,North,352,0.0,1.0,93,0.00,,,0.00,WeatherCatV1.11B39,2013-01-29 07:55:00,
2013-01-29 03:00:00,26.5,24.8,30.08,SSE,160,0.0,1.0,93,0.00,,,0.00,WeatherCatV1.11B39,2013-01-29 08:00:00,
2013-01-29 03:05:00,26.4,24.7,30.07,NNW,341,0.0,3.0,93,0.00,,,0.00,WeatherCatV1.11B39,2013-01-29 08:05:00,
2013-01-29 03:10:00,26.3,24.6,30.07,SSW,197,0.0,0.0,93,0.00,,,0.00,WeatherCatV1.11B39,2013-01-29 08:10:00,
2013-01-29 03:15:00,26.3,24.6,30.07,NNE,12,0.0,1.0,93,0.00,,,0.00,WeatherCatV1.11B39,2013-01-29 08:15:00,
2013-01-29 03:20:00,26.2,24.5,30.08,NNE,25,0.0,0.0,93,0.00,,,0.00,WeatherCatV1.11B39,2013-01-29 08:20:00,
2013-01-29 03:25:00,26.2,24.5,30.08,NW,321,1.0,1.0,93,0.00,,,0.00,WeatherCatV1.11B39,2013-01-29 08:25:00,
2013-01-29 03:30:00,26.2,24.5,30.08,SE,141,0.0,1.0,93,0.00,,,0.00,WeatherCatV1.11B39,2013-01-29 08:30:00,
2013-01-29 03:35:00,26.1,24.4,30.08,NNW,328,1.0,1.0,93,0.00,,,0.00,WeatherCatV1.11B39,2013-01-29 08:35:00,
2013-01-29 03:40:00,26.1,24.1,30.08,North,6,1.0,2.0,92,0.00,,,0.00,WeatherCatV1.11B39,2013-01-29 08:40:00,
2013-01-29 03:45:00,26.0,24.0,30.08,NW,321,1.0,4.0,92,0.00,,,0.00,WeatherCatV1.11B39,2013-01-29 08:45:00,
2013-01-29 03:50:00,25.9,23.9,30.08,NNE,13,0.0,1.0,92,0.00,,,0.00,WeatherCatV1.11B39,2013-01-29 08:50:00,
2013-01-29 03:55:00,25.9,23.9,30.08,North,356,1.0,1.0,92,0.00,,,0.00,WeatherCatV1.11B39,2013-01-29 08:55:00,
2013-01-29 04:00:00,25.9,23.9,30.08,NNE,19,1.0,2.0,92,0.00,,,0.00,WeatherCatV1.11B39,2013-01-29 09:00:00,
2013-01-29 04:05:00,25.8,24.1,30.08,North,356,0.0,2.0,93,0.00,,,0.00,WeatherCatV1.11B39,2013-01-29 09:05:00,
2013-01-29 04:10:00,25.9,24.2,30.08,North,358,0.0,1.0,93,0.00,,,0.00,WeatherCatV1.11B39,2013-01-29 09:10:00,
2013-01-29 04:15:00,25.8,23.8,30.08,NNW,335,1.0,2.0,92,0.00,,,0.00,WeatherCatV1.11B39,2013-01-29 09:15:00,
2013-01-29 04:20:00,25.8,23.8,30.09,North,7,2.0,3.0,92,0.00,,,0.00,WeatherCatV1.11B39,2013-01-29 09:20:00,
2013-01-29 04:25:00,25.8,24.1,30.09,SE,135,0.0,0.0,93,0.00,,,0.00,WeatherCatV1.11B39,2013-01-29 09:25:00,
2013-01-29 04:30:00,25.8,24.1,30.09,North,359,0.0,1.0,93,0.00,,,0.00,WeatherCatV1.11B39,2013-01-29 09:30:00,
2013-01-29 04:35:00,25.8,24.1,30.09,NNW,330,0.0,0.0,93,0.00,,,0.00,WeatherCatV1.11B39,2013-01-29 09:35:00,
2013-01-29 04:40:00,25.9,24.2,30.09,SSW,204,0.0,1.0,93,0.00,,,0.00,WeatherCatV1.11B39,2013-01-29 09:40:00,
2013-01-29 04:45:00,25.9,24.2,30.09,South,190,0.0,1.0,93,0.00,,,0.00,WeatherCatV1.11B39,2013-01-29 09:45:00,
2013-01-29 04:50:00,25.8,24.1,30.09,NNE,30,1.0,2.0,93,0.00,,,0.00,WeatherCatV1.11B39,2013-01-29 09:50:00,
2013-01-29 04:55:00,25.8,23.8,30.10,North,351,0.0,1.0,92,0.00,,,0.00,WeatherCatV1.11B39,2013-01-29 09:55:00,
2013-01-29 05:00:00,25.8,24.1,30.10,ESE,120,0.0,1.0,93,0.00,,,0.00,WeatherCatV1.11B39,2013-01-29 10:00:00,
2013-01-29 05:05:00,25.8,23.8,30.10,North,0,0.0,2.0,92,0.00,,,0.00,WeatherCatV1.11B39,2013-01-29 10:05:00,
2013-01-29 05:10:00,25.8,24.1,30.10,SW,225,1.0,1.0,93,0.00,,,0.00,WeatherCatV1.11B39,2013-01-29 10:10:00,
2013-01-29 05:15:00,25.8,23.8,30.10,NNW,329,0.0,1.0,92,0.00,,,0.00,WeatherCatV1.11B39,2013-01-29 10:15:00,
2013-01-29 05:20:00,25.7,23.7,30.10,NNW,343,0.0,1.0,92,0.00,,,0.00,WeatherCatV1.11B39,2013-01-29 10:20:00,
2013-01-29 05:25:00,25.7,23.7,30.10,North,352,0.0,0.0,92,0.00,,,0.00,WeatherCatV1.11B39,2013-01-29 10:25:00,
2013-01-29 05:30:00,25.6,23.6,30.10,North,0,0.0,3.0,92,0.00,,,0.00,WeatherCatV1.11B39,2013-01-29 10:30:00,
2013-01-29 05:35:00,25.6,23.6,30.10,SSW,205,0.0,0.0,92,0.00,,,0.00,WeatherCatV1.11B39,2013-01-29 10:35:00,
2013-01-29 05:40:00,25.6,23.6,30.11,North,354,1.0,2.0,92,0.00,,,0.00,WeatherCatV1.11B39,2013-01-29 10:40:00,
2013-01-29 05:45:00,25.5,23.5,30.11,NNW,331,0.0,2.0,92,0.00,,,0.00,WeatherCatV1.11B39,2013-01-29 10:45:00,
2013-01-29 05:50:00,25.5,23.5,30.11,North,359,0.0,0.0,92,0.00,,,0.00,WeatherCatV1.11B39,2013-01-29 10:50:00,
2013-01-29 05:55:00,25.5,23.5,30.11,NNW,335,0.0,1.0,92,0.00,,,0.00,WeatherCatV1.11B39,2013-01-29 10:55:00,
2013-01-29 06:00:00,25.5,23.5,30.11,NW,326,0.0,1.0,92,0.00,,,0.00,WeatherCatV1.11B39,2013-01-29 11:00:00,
2013-01-29 06:05:00,25.5,23.5,30.11,NNE,26,0.0,4.0,92,0.00,,,0.00,WeatherCatV1.11B39,2013-01-29 11:05:00,
2013-01-29 06:10:00,25.4,23.4,30.12,North,349,0.0,5.0,92,0.00,,,0.00,WeatherCatV1.11B39,2013-01-29 11:10:00,
2013-01-29 06:15:00,25.4,23.4,30.12,SW,221,0.0,0.0,92,0.00,,,0.00,WeatherCatV1.11B39,2013-01-29 11:15:00,
2013-01-29 06:20:00,25.4,23.4,30.12,ESE,110,0.0,1.0,92,0.00,,,0.00,WeatherCatV1.11B39,2013-01-29 11:20:00,
2013-01-29 06:25:00,25.4,23.4,30.12,SSW,203,1.0,2.0,92,0.00,,,0.00,WeatherCatV1.11B39,2013-01-29 11:25:00,
2013-01-29 06:30:00,25.4,23.4,30.12,WSW,239,0.0,3.0,92,0.00,,,0.00,WeatherCatV1.11B39,2013-01-29 11:30:00,
2013-01-29 06:35:00,25.4,23.4,30.13,NW,325,0.0,0.0,92,0.00,,,0.00,WeatherCatV1.11B39,2013-01-29 11:35:00,
2013-01-29 06:40:00,25.4,23.4,30.13,NNW,328,0.0,0.0,92,0.00,,,0.00,WeatherCatV1.11B39,2013-01-29 11:40:00,
2013-01-29 06:45:00,25.4,23.4,30.13,SW,224,1.0,1.0,92,0.00,,,0.00,WeatherCatV1.11B39,2013-01-29 11:45:00,
2013-01-29 06:50:00,25.5,23.5,30.14,SW,222,0.0,2.0,92,0.00,,,0.00,WeatherCatV1.11B39,2013-01-29 11:50:00,
2013-01-29 06:55:00,25.5,23.5,30.14,SW,218,0.0,1.0,92,0.00,,,0.00,WeatherCatV1.11B39,2013-01-29 11:55:00,
2013-01-29 07:00:00,25.5,23.5,30.14,North,8,0.0,1.0,92,0.00,,,0.00,WeatherCatV1.11B39,2013-01-29 12:00:00,
2013-01-29 07:05:00,25.5,23.5,30.15,South,170,0.0,1.0,92,0.00,,,0.00,WeatherCatV1.11B39,2013-01-29 12:05:00,
2013-01-29 07:10:00,25.5,23.5,30.15,WSW,253,0.0,1.0,92,0.00,,,0.00,WeatherCatV1.11B39,2013-01-29 12:10:00,
2013-01-29 07:15:00,25.6,23.6,30.15,North,352,0.0,1.0,92,0.00,,,0.00,WeatherCatV1.11B39,2013-01-29 12:15:00,
2013-01-29 07:20:00,25.6,23.6,30.15,NNE,29,0.0,1.0,92,0.00,,,0.00,WeatherCatV1.11B39,2013-01-29 12:20:00,
2013-01-29 07:25:00,25.6,23.6,30.15,NW,307,1.0,1.0,92,0.00,,,0.00,WeatherCatV1.11B39,2013-01-29 12:25:00,
2013-01-29 07:30:00,25.7,23.7,30.16,SW,222,0.0,1.0,92,0.00,,,0.00,WeatherCatV1.11B39,2013-01-29 12:30:00,
2013-01-29 07:35:00,25.7,23.7,30.16,SW,218,0.0,1.0,92,0.00,,,0.00,WeatherCatV1.11B39,2013-01-29 12:35:00,
2013-01-29 07:40:00,25.8,23.8,30.17,SW,218,0.0,1.0,92,0.00,,,0.00,WeatherCatV1.11B39,2013-01-29 12:40:00,
2013-01-29 07:45:00,25.9,23.9,30.17,North,11,0.0,0.0,92,0.00,,,0.00,WeatherCatV1.11B39,2013-01-29 12:45:00,
2013-01-29 07:50:00,25.9,23.9,30.17,North,352,0.0,0.0,92,0.00,,,0.00,WeatherCatV1.11B39,2013-01-29 12:50:00,
2013-01-29 07:55:00,26.0,24.0,30.17,North,6,0.0,1.0,92,0.00,,,0.00,WeatherCatV1.11B39,2013-01-29 12:55:00,
2013-01-29 08:00:00,26.1,24.1,30.17,South,181,0.0,0.0,92,0.00,,,0.00,WeatherCatV1.11B39,2013-01-29 13:00:00,
2013-01-29 08:05:00,26.2,23.9,30.17,SW,226,0.0,1.0,91,0.00,,,0.00,WeatherCatV1.11B39,2013-01-29 13:05:00,
2013-01-29 08:10:00,26.3,24.0,30.17,SW,222,0.0,1.0,91,0.00,,,0.00,WeatherCatV1.11B39,2013-01-29 13:10:00,
2013-01-29 08:15:00,26.3,24.0,30.17,West,264,0.0,1.0,91,0.00,,,0.00,WeatherCatV1.11B39,2013-01-29 13:15:00,
2013-01-29 08:20:00,26.5,24.2,30.17,West,262,0.0,1.0,91,0.00,,,0.00,WeatherCatV1.11B39,2013-01-29 13:20:00,
2013-01-29 08:25:00,26.6,24.3,30.17,WSW,253,0.0,1.0,91,0.00,,,0.00,WeatherCatV1.11B39,2013-01-29 13:25:00,
2013-01-29 08:30:00,26.7,24.4,30.18,SSW,210,0.0,0.0,91,0.00,,,0.00,WeatherCatV1.11B39,2013-01-29 13:30:00,
2013-01-29 08:35:00,26.8,24.3,30.18,SW,217,0.0,2.0,90,0.00,,,0.00,WeatherCatV1.11B39,2013-01-29 13:35:00,
2013-01-29 08:40:00,26.8,24.3,30.18,SSW,212,0.0,0.0,90,0.00,,,0.00,WeatherCatV1.11B39,2013-01-29 13:40:00,
2013-01-29 08:45:00,26.9,24.6,30.19,ENE,57,0.0,0.0,91,0.00,,,0.00,WeatherCatV1.11B39,2013-01-29 13:45:00,
2013-01-29 08:50:00,27.1,24.6,30.19,WNW,295,0.0,0.0,90,0.00,,,0.00,WeatherCatV1.11B39,2013-01-29 13:50:00,
2013-01-29 08:55:00,27.2,24.7,30.18,SW,215,1.0,1.0,90,0.00,,,0.00,WeatherCatV1.11B39,2013-01-29 13:55:00,
2013-01-29 09:00:00,27.3,24.8,30.19,NNW,335,0.0,1.0,90,0.00,,,0.00,WeatherCatV1.11B39,2013-01-29 14:00:00,
2013-01-29 09:05:00,27.4,24.6,30.19,SW,215,0.0,2.0,89,0.00,,,0.00,WeatherCatV1.11B39,2013-01-29 14:05:00,
2013-01-29 09:10:00,27.5,24.7,30.19,NNE,16,0.0,1.0,89,0.00,,,0.00,WeatherCatV1.11B39,2013-01-29 14:10:00,
2013-01-29 09:15:00,27.7,24.9,30.19,East,79,0.0,0.0,89,0.00,,,0.00,WeatherCatV1.11B39,2013-01-29 14:15:00,
2013-01-29 09:20:00,27.8,25.0,30.19,NNE,15,0.0,1.0,89,0.00,,,0.00,WeatherCatV1.11B39,2013-01-29 14:20:00,
2013-01-29 09:25:00,28.0,25.2,30.19,SE,124,0.0,1.0,89,0.00,,,0.00,WeatherCatV1.11B39,2013-01-29 14:25:00,
2013-01-29 09:30:00,28.2,25.4,30.19,North,358,0.0,1.0,89,0.00,,,0.00,WeatherCatV1.11B39,2013-01-29 14:30:00,
2013-01-29 09:35:00,28.2,25.1,30.19,SW,217,0.0,0.0,88,0.00,,,0.00,WeatherCatV1.11B39,2013-01-29 14:35:00,
2013-01-29 09:40:00,28.6,26.0,30.18,SW,217,0.0,0.0,90,0.00,,,0.00,WeatherCatV1.11B39,2013-01-29 14:40:00,
2013-01-29 09:45:00,28.8,26.0,30.18,SW,217,0.0,1.0,89,0.00,,,0.00,WeatherCatV1.11B39,2013-01-29 14:45:00,
2013-01-29 09:50:00,28.9,25.8,30.19,ESE,123,0.0,0.0,88,0.00,,,0.00,WeatherCatV1.11B39,2013-01-29 14:50:00,
2013-01-29 09:55:00,29.0,25.9,30.19,SSW,195,0.0,0.0,88,0.00,,,0.00,WeatherCatV1.11B39,2013-01-29 14:55:00,
2013-01-29 10:00:00,29.4,26.3,30.19,North,356,1.0,1.0,88,0.00,,,0.00,WeatherCatV1.11B39,2013-01-29 15:00:00,
2013-01-29 10:05:00,29.4,26.3,30.19,North,8,0.0,0.0,88,0.00,,,0.00,WeatherCatV1.11B39,2013-01-29 15:05:00,
2013-01-29 10:10:00,29.8,26.7,30.19,West,262,0.0,1.0,88,0.00,,,0.00,WeatherCatV1.11B39,2013-01-29 15:10:00,
2013-01-29 10:15:00,29.9,26.5,30.19,NNE,18,1.0,3.0,87,0.00,,,0.00,WeatherCatV1.11B39,2013-01-29 15:15:00,
2013-01-29 10:20:00,30.1,27.0,30.19,ESE,107,0.0,1.0,88,0.00,,,0.00,WeatherCatV1.11B39,2013-01-29 15:20:00,
2013-01-29 10:25:00,30.4,27.0,30.20,SW,233,0.0,1.0,87,0.00,,,0.00,WeatherCatV1.11B39,2013-01-29 15:25:00,
2013-01-29 10:30:00,30.6,27.2,30.20,SW,231,1.0,1.0,87,0.00,,,0.00,WeatherCatV1.11B39,2013-01-29 15:30:00,
2013-01-29 10:35:00,30.7,27.3,30.20,NNE,26,0.0,1.0,87,0.00,,,0.00,WeatherCatV1.11B39,2013-01-29 15:35:00,
2013-01-29 10:40:00,30.8,27.4,30.20,East,89,1.0,1.0,87,0.00,,,0.00,WeatherCatV1.11B39,2013-01-29 15:40:00,
2013-01-29 10:45:00,31.0,27.6,30.20,East,89,0.0,0.0,87,0.00,,,0.00,WeatherCatV1.11B39,2013-01-29 15:45:00,
2013-01-29 10:50:00,31.3,27.6,30.21,North,356,1.0,2.0,86,0.00,,,0.00,WeatherCatV1.11B39,2013-01-29 15:50:00,
2013-01-29 10:55:00,31.0,27.3,30.21,SW,218,0.0,1.0,86,0.00,,,0.00,WeatherCatV1.11B39,2013-01-29 15:55:00,
2013-01-29 11:00:00,30.9,27.2,30.21,NNW,331,0.0,2.0,86,0.00,,,0.00,WeatherCatV1.11B39,2013-01-29 16:00:00,
2013-01-29 11:05:00,30.9,27.5,30.21,North,354,2.0,2.0,87,0.00,,,0.00,WeatherCatV1.11B39,2013-01-29 16:05:00,
2013-01-29 11:10:00,30.9,27.5,30.21,NNE,16,0.0,0.0,87,0.00,,,0.00,WeatherCatV1.11B39,2013-01-29 16:10:00,
2013-01-29 11:15:00,31.2,27.8,30.20,NNW,346,0.0,0.0,87,0.00,,,0.00,WeatherCatV1.11B39,2013-01-29 16:15:00,
2013-01-29 11:20:00,31.6,28.2,30.20,North,1,0.0,0.0,87,0.00,,,0.00,WeatherCatV1.11B39,2013-01-29 16:20:00,
2013-01-29 11:25:00,31.7,28.0,30.20,SSW,200,0.0,0.0,86,0.00,,,0.00,WeatherCatV1.11B39,2013-01-29 16:25:00,
2013-01-29 11:30:00,31.8,28.1,30.20,NNE,22,0.0,1.0,86,0.00,,,0.00,WeatherCatV1.11B39,2013-01-29 16:30:00,
2013-01-29 11:35:00,31.9,28.5,30.20,NNE,18,0.0,1.0,87,0.00,,,0.00,WeatherCatV1.11B39,2013-01-29 16:35:00,
2013-01-29 11:40:00,32.2,28.5,30.20,SW,217,0.0,1.0,86,0.00,,,0.00,WeatherCatV1.11B39,2013-01-29 16:40:00,
2013-01-29 11:45:00,32.5,28.8,30.21,South,190,0.0,0.0,86,0.00,,,0.00,WeatherCatV1.11B39,2013-01-29 16:45:00,
2013-01-29 11:50:00,32.8,29.1,30.21,South,190,0.0,0.0,86,0.00,,,0.00,WeatherCatV1.11B39,2013-01-29 16:50:00,
2013-01-29 11:55:00,32.9,28.9,30.20,North,358,1.0,1.0,85,0.00,,,0.00,WeatherCatV1.11B39,2013-01-29 16:55:00,
2013-01-29 12:00:00,33.0,29.0,30.20,East,94,1.0,2.0,85,0.00,,,0.00,WeatherCatV1.11B39,2013-01-29 17:00:00,
2013-01-29 12:05:00,32.7,28.7,30.20,NNW,339,0.0,1.0,85,0.00,,,0.00,WeatherCatV1.11B39,2013-01-29 17:05:00,
2013-01-29 12:10:00,32.7,29.0,30.19,SSW,210,0.0,1.0,86,0.00,,,0.00,WeatherCatV1.11B39,2013-01-29 17:10:00,
2013-01-29 12:15:00,32.8,29.1,30.19,ENE,67,1.0,1.0,86,0.00,,,0.00,WeatherCatV1.11B39,2013-01-29 17:15:00,
2013-01-29 12:20:00,32.8,28.8,30.18,SSE,156,0.0,0.0,85,0.00,,,0.00,WeatherCatV1.11B39,2013-01-29 17:20:00,
2013-01-29 12:25:00,32.9,28.9,30.19,SSE,152,0.0,0.0,85,0.00,,,0.00,WeatherCatV1.11B39,2013-01-29 17:25:00,
2013-01-29 12:30:00,33.1,29.1,30.19,SW,224,0.0,0.0,85,0.00,,,0.00,WeatherCatV1.11B39,2013-01-29 17:30:00,
2013-01-29 12:35:00,33.1,29.1,30.19,SW,231,0.0,1.0,85,0.00,,,0.00,WeatherCatV1.11B39,2013-01-29 17:35:00,
2013-01-29 12:40:00,33.0,29.0,30.19,NNE,15,1.0,2.0,85,0.00,,,0.00,WeatherCatV1.11B39,2013-01-29 17:40:00,
2013-01-29 12:45:00,33.0,29.0,30.19,North,11,1.0,3.0,85,0.00,,,0.00,WeatherCatV1.11B39,2013-01-29 17:45:00,
2013-01-29 12:50:00,33.0,29.0,30.19,NNW,335,0.0,1.0,85,0.00,,,0.00,WeatherCatV1.11B39,2013-01-29 17:50:00,
2013-01-29 12:55:00,33.1,29.1,30.19,South,191,1.0,1.0,85,0.00,,,0.00,WeatherCatV1.11B39,2013-01-29 17:55:00,
2013-01-29 13:00:00,33.2,29.2,30.19,SSW,210,0.0,1.0,85,0.00,,,0.00,WeatherCatV1.11B39,2013-01-29 18:00:00,
2013-01-29 13:05:00,33.2,29.2,30.19,NNW,338,0.0,0.0,85,0.00,,,0.00,WeatherCatV1.11B39,2013-01-29 18:05:00,
2013-01-29 13:10:00,33.6,29.6,30.18,NNW,337,0.0,0.0,85,0.00,,,0.00,WeatherCatV1.11B39,2013-01-29 18:10:00,
2013-01-29 13:15:00,34.0,29.7,30.18,NNW,341,0.0,1.0,84,0.00,,,0.00,WeatherCatV1.11B39,2013-01-29 18:15:00,
2013-01-29 13:20:00,34.0,29.4,30.18,North,8,0.0,2.0,83,0.00,,,0.00,WeatherCatV1.11B39,2013-01-29 18:20:00,
2013-01-29 13:25:00,33.9,29.3,30.18,SW,230,0.0,1.0,83,0.00,,,0.00,WeatherCatV1.11B39,2013-01-29 18:25:00,
2013-01-29 13:30:00,33.9,29.6,30.18,SW,232,0.0,0.0,84,0.00,,,0.00,WeatherCatV1.11B39,2013-01-29 18:30:00,
2013-01-29 13:35:00,34.3,29.7,30.18,NE,36,0.0,1.0,83,0.00,,,0.00,WeatherCatV1.11B39,2013-01-29 18:35:00,
2013-01-29 13:40:00,34.4,29.5,30.18,SW,217,0.0,0.0,82,0.00,,,0.00,WeatherCatV1.11B39,2013-01-29 18:40:00,
2013-01-29 13:45:00,34.7,29.8,30.18,NNW,346,0.0,1.0,82,0.00,,,0.00,WeatherCatV1.11B39,2013-01-29 18:45:00,
2013-01-29 13:50:00,35.0,29.8,30.18,NNE,18,0.0,0.0,81,0.00,,,0.00,WeatherCatV1.11B39,2013-01-29 18:50:00,
2013-01-29 13:55:00,35.1,29.9,30.18,NNE,16,0.0,1.0,81,0.00,,,0.00,WeatherCatV1.11B39,2013-01-29 18:55:00,
2013-01-29 14:00:00,34.9,29.7,30.18,SW,217,0.0,1.0,81,0.00,,,0.00,WeatherCatV1.11B39,2013-01-29 19:00:00,
2013-01-29 14:05:00,34.8,29.9,30.19,West,264,0.0,1.0,82,0.00,,,0.00,WeatherCatV1.11B39,2013-01-29 19:05:00,
2013-01-29 14:10:00,34.9,30.0,30.19,SSW,211,0.0,1.0,82,0.00,,,0.00,WeatherCatV1.11B39,2013-01-29 19:10:00,
2013-01-29 14:15:00,34.8,29.9,30.20,SSW,211,0.0,0.0,82,0.00,,,0.00,WeatherCatV1.11B39,2013-01-29 19:15:00,
2013-01-29 14:20:00,34.8,29.9,30.19,SSW,205,0.0,0.0,82,0.00,,,0.00,WeatherCatV1.11B39,2013-01-29 19:20:00,
2013-01-29 14:25:00,34.8,29.6,30.19,SW,218,0.0,1.0,81,0.00,,,0.00,WeatherCatV1.11B39,2013-01-29 19:25:00,
2013-01-29 14:30:00,34.8,29.9,30.18,SW,218,0.0,1.0,82,0.00,,,0.00,WeatherCatV1.11B39,2013-01-29 19:30:00,
2013-01-29 14:35:00,34.9,29.7,30.19,SW,218,0.0,0.0,81,0.00,,,0.00,WeatherCatV1.11B39,2013-01-29 19:35:00,
2013-01-29 14:40:00,34.9,29.7,30.19,SW,222,0.0,1.0,81,0.00,,,0.00,WeatherCatV1.11B39,2013-01-29 19:40:00,
2013-01-29 14:45:00,34.8,29.6,30.19,SW,222,0.0,1.0,81,0.00,,,0.00,WeatherCatV1.11B39,2013-01-29 19:45:00,
2013-01-29 14:50:00,34.8,29.6,30.19,SW,222,0.0,1.0,81,0.00,,,0.01,WeatherCatV1.11B39,2013-01-29 19:50:00,
2013-01-29 14:55:00,34.7,29.8,30.20,SSW,212,0.0,0.0,82,0.00,,,0.01,WeatherCatV1.11B39,2013-01-29 19:55:00,
2013-01-29 15:00:00,34.4,29.5,30.20,SSW,209,0.0,0.0,82,0.00,,,0.01,WeatherCatV1.11B39,2013-01-29 20:00:00,
2013-01-29 15:05:00,34.4,29.5,30.21,SSW,211,0.0,1.0,82,0.05,,,0.02,WeatherCatV1.11B39,2013-01-29 20:05:00,
2013-01-29 15:10:00,34.4,29.8,30.19,SW,221,1.0,1.0,83,0.05,,,0.02,WeatherCatV1.11B39,2013-01-29 20:10:00,
2013-01-29 15:15:00,34.3,29.4,30.20,SW,221,0.0,1.0,82,0.05,,,0.02,WeatherCatV1.11B39,2013-01-29 20:15:00,
2013-01-29 15:20:00,34.3,29.7,30.19,SW,221,0.0,0.0,83,0.00,,,0.02,WeatherCatV1.11B39,2013-01-29 20:20:00,
2013-01-29 15:25:00,34.2,29.6,30.20,SW,221,0.0,0.0,83,0.00,,,0.03,WeatherCatV1.11B39,2013-01-29 20:25:00,
2013-01-29 15:30:00,34.1,29.5,30.19,SW,219,0.0,0.0,83,0.00,,,0.03,WeatherCatV1.11B39,2013-01-29 20:30:00,
2013-01-29 15:35:00,34.1,29.5,30.20,SW,219,0.0,0.0,83,0.00,,,0.03,WeatherCatV1.11B39,2013-01-29 20:35:00,
2013-01-29 15:40:00,34.0,29.7,30.19,SW,219,0.0,0.0,84,0.00,,,0.03,WeatherCatV1.11B39,2013-01-29 20:40:00,
2013-01-29 15:45:00,34.0,29.7,30.19,SW,219,0.0,0.0,84,0.00,,,0.03,WeatherCatV1.11B39,2013-01-29 20:45:00,
2013-01-29 15:50:00,34.1,29.8,30.19,SW,219,0.0,0.0,84,0.00,,,0.03,WeatherCatV1.11B39,2013-01-29 20:50:00,
2013-01-29 15:55:00,34.0,29.7,30.19,SW,219,0.0,0.0,84,0.00,,,0.04,WeatherCatV1.11B39,2013-01-29 20:55:00,
2013-01-29 16:00:00,33.9,29.6,30.19,SW,219,0.0,0.0,84,0.00,,,0.04,WeatherCatV1.11B39,2013-01-29 21:00:00,
2013-01-29 16:05:00,33.9,29.9,30.19,SW,219,0.0,0.0,85,0.00,,,0.04,WeatherCatV1.11B39,2013-01-29 21:05:00,
2013-01-29 16:10:00,33.9,29.6,30.19,SW,219,0.0,0.0,84,0.00,,,0.04,WeatherCatV1.11B39,2013-01-29 21:10:00,
2013-01-29 16:15:00,33.8,29.8,30.19,SW,219,0.0,0.0,85,0.00,,,0.04,WeatherCatV1.11B39,2013-01-29 21:15:00,
2013-01-29 16:20:00,33.8,29.5,30.19,SW,219,0.0,0.0,84,0.00,,,0.04,WeatherCatV1.11B39,2013-01-29 21:20:00,
2013-01-29 16:25:00,33.8,29.8,30.19,SW,219,0.0,0.0,85,0.00,,,0.04,WeatherCatV1.11B39,2013-01-29 21:25:00,
2013-01-29 16:30:00,33.7,29.7,30.19,SW,219,0.0,0.0,85,0.00,,,0.04,WeatherCatV1.11B39,2013-01-29 21:30:00,
2013-01-29 16:35:00,33.7,29.7,30.19,SW,219,0.0,0.0,85,0.00,,,0.04,WeatherCatV1.11B39,2013-01-29 21:35:00,
2013-01-29 16:40:00,33.6,29.9,30.19,SW,219,0.0,0.0,86,0.00,,,0.04,WeatherCatV1.11B39,2013-01-29 21:40:00,
2013-01-29 16:45:00,33.6,29.9,30.20,SW,219,1.0,1.0,86,0.00,,,0.04,WeatherCatV1.11B39,2013-01-29 21:45:00,
2013-01-29 16:50:00,33.5,29.8,30.20,SW,219,0.0,1.0,86,0.00,,,0.05,WeatherCatV1.11B39,2013-01-29 21:50:00,
2013-01-29 16:55:00,33.5,30.1,30.20,SW,219,0.0,0.0,87,0.00,,,0.05,WeatherCatV1.11B39,2013-01-29 21:55:00,
2013-01-29 17:00:00,33.5,30.1,30.20,SW,219,0.0,0.0,87,0.00,,,0.05,WeatherCatV1.11B39,2013-01-29 22:00:00,
2013-01-29 17:05:00,33.4,30.0,30.20,SW,219,0.0,0.0,87,0.00,,,0.05,WeatherCatV1.11B39,2013-01-29 22:05:00,
2013-01-29 17:10:00,33.4,30.0,30.20,SW,219,0.0,0.0,87,0.00,,,0.05,WeatherCatV1.11B39,2013-01-29 22:10:00,
2013-01-29 17:15:00,33.4,30.0,30.19,SW,219,0.0,0.0,87,0.00,,,0.05,WeatherCatV1.11B39,2013-01-29 22:15:00,
2013-01-29 17:20:00,33.4,30.0,30.19,SW,219,0.0,0.0,87,0.00,,,0.05,WeatherCatV1.11B39,2013-01-29 22:20:00,
2013-01-29 17:25:00,33.4,30.0,30.19,SW,219,0.0,0.0,87,0.00,,,0.05,WeatherCatV1.11B39,2013-01-29 22:25:00,
2013-01-29 17:30:00,33.3,30.1,30.19,SW,219,0.0,0.0,88,0.00,,,0.05,WeatherCatV1.11B39,2013-01-29 22:30:00,
2013-01-29 17:35:00,33.2,29.8,30.19,SW,219,0.0,0.0,87,0.00,,,0.05,WeatherCatV1.11B39,2013-01-29 22:35:00,
2013-01-29 17:40:00,33.1,29.9,30.19,SW,219,0.0,0.0,88,0.00,,,0.05,WeatherCatV1.11B39,2013-01-29 22:40:00,
2013-01-29 17:45:00,33.1,29.9,30.19,SW,219,0.0,0.0,88,0.00,,,0.05,WeatherCatV1.11B39,2013-01-29 22:45:00,
2013-01-29 17:50:00,33.0,29.8,30.20,SW,219,0.0,0.0,88,0.00,,,0.05,WeatherCatV1.11B39,2013-01-29 22:50:00,
2013-01-29 17:55:00,33.0,29.8,30.20,SW,219,0.0,0.0,88,0.00,,,0.05,WeatherCatV1.11B39,2013-01-29 22:55:00,
2013-01-29 18:00:00,32.9,29.7,30.20,SW,219,0.0,0.0,88,0.00,,,0.05,WeatherCatV1.11B39,2013-01-29 23:00:00,
2013-01-29 18:05:00,32.9,29.7,30.20,SW,219,0.0,0.0,88,0.00,,,0.05,WeatherCatV1.11B39,2013-01-29 23:05:00,
2013-01-29 18:10:00,33.0,30.1,30.20,SW,219,0.0,0.0,89,0.00,,,0.05,WeatherCatV1.11B39,2013-01-29 23:10:00,
2013-01-29 18:15:00,33.0,29.8,30.20,SW,219,0.0,0.0,88,0.00,,,0.05,WeatherCatV1.11B39,2013-01-29 23:15:00,
2013-01-29 18:20:00,33.0,29.8,30.21,SW,219,0.0,0.0,88,0.00,,,0.05,WeatherCatV1.11B39,2013-01-29 23:20:00,
2013-01-29 18:25:00,33.1,30.2,30.21,SW,219,0.0,0.0,89,0.00,,,0.05,WeatherCatV1.11B39,2013-01-29 23:25:00,
2013-01-29 18:30:00,33.2,30.3,30.20,SW,219,0.0,0.0,89,0.00,,,0.05,WeatherCatV1.11B39,2013-01-29 23:30:00,
2013-01-29 18:35:00,33.2,30.3,30.20,SW,219,0.0,1.0,89,0.00,,,0.05,WeatherCatV1.11B39,2013-01-29 23:35:00,
2013-01-29 18:40:00,33.2,30.3,30.20,SW,219,0.0,0.0,89,0.00,,,0.05,WeatherCatV1.11B39,2013-01-29 23:40:00,
2013-01-29 18:45:00,33.2,30.3,30.20,SW,219,0.0,0.0,89,0.00,,,0.05,WeatherCatV1.11B39,2013-01-29 23:45:00,
2013-01-29 18:50:00,33.2,30.3,30.20,SW,219,0.0,0.0,89,0.00,,,0.05,WeatherCatV1.11B39,2013-01-29 23:50:00,
2013-01-29 18:55:00,33.2,30.3,30.21,SW,219,0.0,0.0,89,0.00,,,0.05,WeatherCatV1.11B39,2013-01-29 23:55:00,
2013-01-29 19:00:00,33.3,30.4,30.21,SW,219,0.0,0.0,89,0.00,,,0.05,WeatherCatV1.11B39,2013-01-30 00:00:00,
2013-01-29 19:05:00,33.3,30.4,30.21,SW,219,0.0,0.0,89,0.00,,,0.05,WeatherCatV1.11B39,2013-01-30 00:05:00,
2013-01-29 19:10:00,33.4,30.5,30.20,SW,219,0.0,0.0,89,0.00,,,0.05,WeatherCatV1.11B39,2013-01-30 00:10:00,
2013-01-29 19:15:00,33.4,30.5,30.20,SW,219,0.0,0.0,89,0.00,,,0.05,WeatherCatV1.11B39,2013-01-30 00:15:00,
2013-01-29 19:20:00,33.4,30.5,30.19,SW,219,0.0,0.0,89,0.00,,,0.06,WeatherCatV1.11B39,2013-01-30 00:20:00,
2013-01-29 19:25:00,33.3,30.4,30.19,SW,219,0.0,0.0,89,0.00,,,0.06,WeatherCatV1.11B39,2013-01-30 00:25:00,
2013-01-29 19:30:00,33.3,30.4,30.19,SW,219,0.0,0.0,89,0.00,,,0.06,WeatherCatV1.11B39,2013-01-30 00:30:00,
2013-01-29 19:35:00,33.3,30.7,30.20,SW,219,0.0,0.0,90,0.00,,,0.06,WeatherCatV1.11B39,2013-01-30 00:35:00,
2013-01-29 19:40:00,33.3,30.7,30.20,SW,219,0.0,0.0,90,0.00,,,0.06,WeatherCatV1.11B39,2013-01-30 00:40:00,
2013-01-29 19:45:00,33.3,30.7,30.21,SW,219,0.0,0.0,90,0.00,,,0.06,WeatherCatV1.11B39,2013-01-30 00:45:00,
2013-01-29 19:50:00,33.3,30.7,30.21,SW,219,0.0,0.0,90,0.00,,,0.06,WeatherCatV1.11B39,2013-01-30 00:50:00,
2013-01-29 19:55:00,33.4,30.8,30.21,SW,219,0.0,0.0,90,0.00,,,0.06,WeatherCatV1.11B39,2013-01-30 00:55:00,
2013-01-29 20:00:00,33.4,30.8,30.21,SW,219,0.0,0.0,90,0.00,,,0.06,WeatherCatV1.11B39,2013-01-30 01:00:00,
2013-01-29 20:05:00,33.5,30.9,30.21,SW,219,0.0,0.0,90,0.00,,,0.06,WeatherCatV1.11B39,2013-01-30 01:05:00,
2013-01-29 20:10:00,33.5,30.9,30.20,SW,219,0.0,0.0,90,0.00,,,0.06,WeatherCatV1.11B39,2013-01-30 01:10:00,
2013-01-29 20:15:00,33.5,30.9,30.20,SW,219,0.0,0.0,90,0.00,,,0.06,WeatherCatV1.11B39,2013-01-30 01:15:00,
2013-01-29 20:20:00,33.5,30.9,30.21,SW,219,0.0,0.0,90,0.00,,,0.06,WeatherCatV1.11B39,2013-01-30 01:20:00,
2013-01-29 20:25:00,33.6,31.0,30.21,SW,219,0.0,0.0,90,0.00,,,0.06,WeatherCatV1.11B39,2013-01-30 01:25:00,
2013-01-29 20:30:00,33.7,30.8,30.20,SW,219,0.0,0.0,89,0.00,,,0.06,WeatherCatV1.11B39,2013-01-30 01:30:00,
2013-01-29 20:35:00,33.7,30.8,30.20,SW,219,0.0,0.0,89,0.00,,,0.06,WeatherCatV1.11B39,2013-01-30 01:35:00,
2013-01-29 20:40:00,33.6,31.0,30.21,SW,221,0.0,0.0,90,0.00,,,0.06,WeatherCatV1.11B39,2013-01-30 01:40:00,
2013-01-29 20:45:00,33.7,31.1,30.21,SW,219,0.0,0.0,90,0.00,,,0.06,WeatherCatV1.11B39,2013-01-30 01:45:00,
2013-01-29 20:50:00,33.8,31.2,30.21,SW,236,0.0,1.0,90,0.00,,,0.06,WeatherCatV1.11B39,2013-01-30 01:50:00,
2013-01-29 20:55:00,33.9,31.3,30.21,SSW,207,0.0,1.0,90,0.00,,,0.06,WeatherCatV1.11B39,2013-01-30 01:55:00,
2013-01-29 21:00:00,34.0,31.7,30.22,SSW,198,0.0,1.0,91,0.00,,,0.06,WeatherCatV1.11B39,2013-01-30 02:00:00,
2013-01-29 21:05:00,34.0,31.7,30.22,SE,144,0.0,0.0,91,0.00,,,0.06,WeatherCatV1.11B39,2013-01-30 02:05:00,
2013-01-29 21:10:00,34.1,31.8,30.22,WSW,245,0.0,1.0,91,0.00,,,0.06,WeatherCatV1.11B39,2013-01-30 02:10:00,
2013-01-29 21:15:00,34.0,31.7,30.21,WSW,242,0.0,0.0,91,0.00,,,0.06,WeatherCatV1.11B39,2013-01-30 02:15:00,
2013-01-29 21:20:00,34.0,31.7,30.21,West,271,0.0,0.0,91,0.00,,,0.06,WeatherCatV1.11B39,2013-01-30 02:20:00,
2013-01-29 21:25:00,34.0,31.9,30.21,SW,231,0.0,1.0,92,0.00,,,0.06,WeatherCatV1.11B39,2013-01-30 02:25:00,
2013-01-29 21:30:00,33.9,31.8,30.20,SSE,158,0.0,0.0,92,0.00,,,0.06,WeatherCatV1.11B39,2013-01-30 02:30:00,
2013-01-29 21:35:00,33.8,31.7,30.19,SSE,158,0.0,0.0,92,0.00,,,0.07,WeatherCatV1.11B39,2013-01-30 02:35:00,
2013-01-29 21:40:00,33.7,31.9,30.19,SSE,158,0.0,0.0,93,0.00,,,0.07,WeatherCatV1.11B39,2013-01-30 02:40:00,
2013-01-29 21:45:00,33.7,31.9,30.19,SSE,158,0.0,0.0,93,0.00,,,0.07,WeatherCatV1.11B39,2013-01-30 02:45:00,
2013-01-29 21:50:00,33.7,31.9,30.19,SSE,158,0.0,0.0,93,0.00,,,0.07,WeatherCatV1.11B39,2013-01-30 02:50:00,
2013-01-29 21:55:00,33.7,32.2,30.20,SSE,158,0.0,0.0,94,0.00,,,0.07,WeatherCatV1.11B39,2013-01-30 02:55:00,
2013-01-29 22:00:00,33.7,32.2,30.19,SSE,158,0.0,0.0,94,0.00,,,0.07,WeatherCatV1.11B39,2013-01-30 03:00:00,
2013-01-29 22:05:00,33.6,32.1,30.19,SSE,158,0.0,0.0,94,0.00,,,0.07,WeatherCatV1.11B39,2013-01-30 03:05:00,
2013-01-29 22:10:00,33.5,32.0,30.20,SSE,158,0.0,0.0,94,0.00,,,0.07,WeatherCatV1.11B39,2013-01-30 03:10:00,
2013-01-29 22:15:00,33.5,32.0,30.20,SSE,158,0.0,0.0,94,0.00,,,0.07,WeatherCatV1.11B39,2013-01-30 03:15:00,
2013-01-29 22:20:00,33.5,32.0,30.19,SSE,158,0.0,0.0,94,0.00,,,0.07,WeatherCatV1.11B39,2013-01-30 03:20:00,
2013-01-29 22:25:00,33.5,32.0,30.18,SSE,158,0.0,0.0,94,0.00,,,0.07,WeatherCatV1.11B39,2013-01-30 03:25:00,
2013-01-29 22:30:00,33.5,32.0,30.17,SSE,158,0.0,0.0,94,0.00,,,0.08,WeatherCatV1.11B39,2013-01-30 03:30:00,
2013-01-29 22:35:00,33.4,31.9,30.17,SSE,158,0.0,0.0,94,0.00,,,0.08,WeatherCatV1.11B39,2013-01-30 03:35:00,
2013-01-29 22:40:00,33.5,32.2,30.17,SSE,158,0.0,0.0,95,0.00,,,0.08,WeatherCatV1.11B39,2013-01-30 03:40:00,
2013-01-29 22:45:00,33.5,32.2,30.17,SSE,158,0.0,0.0,95,0.00,,,0.08,WeatherCatV1.11B39,2013-01-30 03:45:00,
2013-01-29 22:50:00,33.6,32.3,30.17,SSE,158,0.0,0.0,95,0.00,,,0.08,WeatherCatV1.11B39,2013-01-30 03:50:00,
2013-01-29 22:55:00,33.6,32.3,30.17,SSE,158,0.0,0.0,95,0.00,,,0.08,WeatherCatV1.11B39,2013-01-30 03:55:00,
2013-01-29 23:00:00,33.7,32.4,30.17,SSE,158,0.0,0.0,95,0.00,,,0.08,WeatherCatV1.11B39,2013-01-30 04:00:00,
2013-01-29 23:05:00,33.8,32.5,30.18,West,273,0.0,0.0,95,0.00,,,0.08,WeatherCatV1.11B39,2013-01-30 04:05:00,
2013-01-29 23:10:00,33.9,32.6,30.17,West,273,0.0,0.0,95,0.00,,,0.08,WeatherCatV1.11B39,2013-01-30 04:10:00,
2013-01-29 23:15:00,33.9,32.6,30.17,West,273,0.0,0.0,95,0.00,,,0.08,WeatherCatV1.11B39,2013-01-30 04:15:00,
2013-01-29 23:20:00,33.8,32.5,30.18,West,274,0.0,1.0,95,0.00,,,0.08,WeatherCatV1.11B39,2013-01-30 04:20:00,
2013-01-29 23:25:00,33.9,32.6,30.17,West,274,0.0,0.0,95,0.00,,,0.08,WeatherCatV1.11B39,2013-01-30 04:25:00,
2013-01-29 23:30:00,33.8,32.5,30.18,West,273,0.0,0.0,95,0.00,,,0.08,WeatherCatV1.11B39,2013-01-30 04:30:00,
2013-01-29 23:35:00,33.8,32.5,30.17,West,274,0.0,0.0,95,0.00,,,0.08,WeatherCatV1.11B39,2013-01-30 04:35:00,
2013-01-29 23:40:00,33.8,32.5,30.18,West,273,0.0,0.0,95,0.00,,,0.08,WeatherCatV1.11B39,2013-01-30 04:40:00,
2013-01-29 23:45:00,33.8,32.5,30.18,West,273,0.0,0.0,95,0.00,,,0.09,WeatherCatV1.11B39,2013-01-30 04:45:00,
2013-01-29 23:50:00,33.9,32.6,30.18,West,273,0.0,0.0,95,0.00,,,0.09,WeatherCatV1.11B39,2013-01-30 04:50:00,
2013-01-29 23:55:00,33.9,32.6,30.18,West,273,0.0,0.0,95,0.00,,,0.09,WeatherCatV1.11B39,2013-01-30 04:55:00,